Weather Roundup
Issued by NWS Springfield, MO

Home | Current Version | Previous Version | Text Only | Print | Product List | Glossary On
Versions: 1 2 3 4 5 6 7 8 9 10 11 12 13 14 15 16 17 18 19 20 21 22 23 24 25 26 27 28 29 30 31 32 33 34 35 36 37 38 39 40 41 42 43 44 45 46 47 48 49 50
000
NZUS99 KSGF 232007
HRRSGF

HOURLY WEATHER
NATIONAL WEATHER SERVICE SPRINGFIELD MO
300 PM CDT MON MAY 23 2016

......SGF CWA......

CITY           SKY/WX    TMP DP  RH WIND       PRES   REMARKS
SPRINGFIELD    CLOUDY    78  57  48 SW10      29.94R
JOPLIN         CLOUDY    74  60  61 SW7       29.93R
WEST PLAINS    PTSUNNY   77  50  38 S13       29.98F
ROLLA          CLOUDY    76  54  46 S9        29.96F
OSAGE BEACH      N/A    N/A N/A N/A MISG        N/A
BRANSON        PTSUNNY   79  57  47 S8        29.95R

......SURROUNDING SGF CWA......

CITY           SKY/WX    TMP DP  RH WIND       PRES   REMARKS
CHANUTE        CLOUDY    67  63  87 E5        29.95S
PARSONS        CLOUDY    70  64  81 N13       29.99R
COFFEYVILLE    LGT RAIN  70  62  76 N14G23    29.97R
EMPORIA        CLOUDY    66  58  75 W15G35    29.81R
GROVE OK       CLOUDY    72  61  68 SE7       29.93R
ROGERS AR        N/A     70  60  70 E6        29.94S
SILOAM SPRINGS CLOUDY    70  55  60 SE5       29.93S
HARRISON AR    CLOUDY    77  59  53 SE8       29.95R
NEAR YELLVILLE SUNNY    N/A N/A N/A S7        29.89F

......KANSAS AND MISSOURI......

CITY           SKY/WX    TMP DP  RH WIND       PRES   REMARKS
KANSAS CTY INT TSTM      63  62  97 SE13      29.91F FOG
DOWNTOWN KC    TSTM      66  63  90 S8        29.91F FOG
COLUMBIA       CLOUDY    78  55  44 S10       29.95F
SEDALIA        PTSUNNY   79  59  50 S9        29.93F
ST JOSEPH      LGT RAIN  65  62  90 SE14G25   29.89F FOG
ST LOUIS       PTSUNNY   84  49  29 S12       29.96F
SPIRIT OF STL  CLOUDY    83  49  30 S13       29.94F
KIRKSVILLE     CLOUDY    78  54  43 S10G21    29.93F
WICHITA        CLOUDY    68  64  87 S15       29.82F
TOPEKA         CLOUDY    67  63  87 E14       29.83R
OLATHE         LGT RAIN  63  62  97 S8        29.92F FOG

......TENNESSEE......

CITY           SKY/WX    TMP DP  RH WIND       PRES   REMARKS
MEMPHIS        PTSUNNY   82  54  37 S9        29.99F
NASHVILLE      MOSUNNY   84  47  27 VRB3      29.99F

......ARKANSAS.......

CITY           SKY/WX    TMP DP  RH WIND       PRES   REMARKS
FAYETTEVILLE   CLOUDY    72  59  63 SE8       29.93S
FT SMITH       CLOUDY    76  60  57 E5        29.90S THUNDER
LITTLE ROCK    PTSUNNY   83  58  42 SE13      29.91F

......OKLAHOMA.......

CITY           SKY/WX    TMP DP  RH WIND       PRES   REMARKS
TULSA          LGT RAIN  70  68  93 E5        29.88F FOG
PONCA CITY     CLOUDY    68  64  87 N8        29.94R
MCALESTER      CLOUDY    76  64  66 S9G18     29.90S
OKLAHOMA CITY  PTSUNNY   77  68  73 S22G29    29.82F

......IOWA............

CITY           SKY/WX    TMP DP  RH WIND       PRES   REMARKS
DES MOINES     CLOUDY    76  58  53 S17       29.87R
QUAD CITIES    CLOUDY    85  47  26 S18       29.90F

......ILLINOIS........

CITY           SKY/WX    TMP DP  RH WIND       PRES   REMARKS
QUINCY         SUNNY     82  49  31 S15G22    29.94S
CHICAGO        MOSUNNY   81  44  27 S6        29.96F



USA.gov is the U.S. government's official web portal to all federal, state and local government web resources and services.